Chicopee, MA

11:54 AM EDT on May 25, 2017 (GMT -0400)
Westover Air Reserve Base / Metropolitan Airport

Weather History for KCEF - May, 2012

Change the Weather History Date:

Thursday, May 10, 2012

  Actual Average Record
Temperature  
Mean Temperature 56 °F -  
Max Temperature 63 °F 66 °F 90 °F (2015)
Min Temperature 48 °F 44 °F 28 °F (2016)
Degree Days  
Heating Degree Days 10    
Growing Degree Days 6 (Base 50)    
Moisture  
Dew Point 51 °F    
Average Humidity 87    
Maximum Humidity 100    
Minimum Humidity 47    
Precipitation  
Precipitation 0.74 in - - ()
Sea Level Pressure  
Sea Level Pressure 29.52 in    
Wind  
Wind Speed 6 mph (NW)    
Max Wind Speed 21 mph    
Max Gust Speed 29 mph    
Visibility 9 miles    
Events Rain    
Averages and records for this station are not official NWS values.
T = Trace of Precipitation, MM = Missing Value Source: NWS Daily Summary

Daily Weather History Graph

Daily Weather History Graph

Search for Another Location

Airport or City:

Trip Planner

Search our weather history database for the weather conditions in past years. The results will help you decide how hot, cold, wet, or windy it might be!

Date:

Astronomy

May. 10, 2012 Rise Set
Actual Time 5:33 AM EDT 7:59 PM EDT
Civil Twilight 5:02 AM EDT 8:31 PM EDT
Nautical Twilight 4:23 AM EDT 9:10 PM EDT
Astronomical Twilight 3:39 AM EDT 9:54 PM EDT
Moon No Moon Rise 9:54 AM EDT (5/10)
Length of Visible Light 15h 28m
Length of Day
14h 25m
Waning Gibbous, 73% of the Moon is Illuminated
May 10
Waning Gibbous
May 12
Last Quarter
May 20
New
May 28
First Quarter
Jun 4
Full

Hourly Weather History & Observations

Time (EDT) Temp. Dew Point Humidity Pressure Visibility Wind Dir Wind Speed Gust Speed Precip Events Conditions
12:07 AM 60.8 °F 60.8 °F 100% 29.57 in 4.0 mi ESE 3.5 mph - N/A Rain Light Rain
12:32 AM 59.0 °F 59.0 °F 100% 29.58 in 2.5 mi WNW 9.2 mph - N/A Rain Rain
12:44 AM 59.0 °F 55.4 °F 88% 29.59 in 3.0 mi NW 6.9 mph - N/A Rain Heavy Rain
12:47 AM 59.0 °F 57.2 °F 94% 29.59 in 3.0 mi North 5.8 mph - N/A Rain Heavy Rain
12:55 AM 57.7 °F 56.3 °F 95% 29.58 in 3.0 mi North 9.2 mph - 0.20 in Rain Heavy Rain
1:55 AM 55.8 °F 55.2 °F 98% 29.55 in 9.0 mi NNE 5.8 mph - 0.06 in Rain Light Rain
2:55 AM 55.2 °F 54.7 °F 98% 29.53 in 4.0 mi North 4.6 mph - 0.14 in Rain Rain
3:55 AM 54.1 °F 53.6 °F 98% 29.50 in 6.0 mi Calm Calm - 0.13 in Rain Light Rain
4:18 AM 53.6 °F 53.6 °F 100% 29.49 in 8.0 mi NNE 3.5 mph - N/A Rain Light Rain
4:52 AM 53.6 °F 53.6 °F 100% 29.47 in 9.0 mi North 5.8 mph - N/A Rain Light Rain
4:55 AM 53.6 °F 53.1 °F 98% 29.47 in 9.0 mi North 5.8 mph - 0.06 in Rain Light Rain
5:16 AM 53.6 °F 53.6 °F 100% 29.47 in 10.0 mi Calm Calm - N/A Rain Light Rain
5:24 AM 53.6 °F 53.6 °F 100% 29.48 in 10.0 mi North 5.8 mph - N/A Rain Light Rain
5:33 AM 53.6 °F 53.6 °F 100% 29.48 in 10.0 mi NNW 4.6 mph - N/A Rain Light Rain
5:42 AM 53.6 °F 53.6 °F 100% 29.48 in 8.0 mi NW 5.8 mph - N/A Rain Light Rain
5:46 AM 53.6 °F 53.6 °F 100% 29.48 in 7.0 mi NNW 5.8 mph - N/A Rain Light Rain
5:55 AM 53.8 °F 52.7 °F 96% 29.48 in 9.0 mi NNW 8.1 mph - 0.04 in Rain Light Rain
6:02 AM 53.6 °F 51.8 °F 94% 29.48 in 9.0 mi NNW 3.5 mph - N/A Rain Light Rain
6:07 AM 53.6 °F 51.8 °F 94% 29.49 in 9.0 mi NNW 6.9 mph - N/A Rain Light Rain
6:13 AM 53.6 °F 51.8 °F 94% 29.49 in 10.0 mi NW 4.6 mph - N/A Rain Light Rain
6:15 AM 53.6 °F 51.8 °F 94% 29.49 in 10.0 mi NNW 4.6 mph - N/A Rain Light Rain
6:19 AM 53.6 °F 51.8 °F 94% 29.49 in 10.0 mi NNW 3.5 mph - N/A Rain Light Rain
6:20 AM 53.6 °F 51.8 °F 94% 29.49 in 10.0 mi NNW 3.5 mph - N/A Rain Light Rain
6:23 AM 53.6 °F 53.6 °F 100% 29.49 in 10.0 mi NNW 3.5 mph - N/A Rain Light Rain
6:33 AM 53.6 °F 53.6 °F 100% 29.49 in 9.0 mi WNW 3.5 mph - N/A Rain Light Rain
6:43 AM 53.6 °F 53.6 °F 100% 29.49 in 8.0 mi WNW 3.5 mph - N/A Rain Light Rain
6:55 AM 53.8 °F 53.2 °F 98% 29.49 in 7.0 mi WNW 3.5 mph - 0.05 in Rain Light Rain
7:16 AM 53.6 °F 53.6 °F 100% 29.49 in 6.0 mi Calm Calm - N/A Rain Light Rain
7:18 AM 53.6 °F 53.6 °F 100% 29.49 in 6.0 mi Calm Calm - N/A Rain Light Rain
7:20 AM 53.6 °F 53.6 °F 100% 29.49 in 6.0 mi NW 3.5 mph - N/A Rain Light Rain
7:55 AM 54.1 °F 53.6 °F 98% 29.48 in 10.0 mi NNW 4.6 mph - 0.04 in Rain Light Rain
8:55 AM 54.7 °F 54.0 °F 97% 29.46 in 10.0 mi WNW 5.8 mph - 0.01 in   Light Drizzle
9:00 AM 55.4 °F 53.6 °F 94% 29.46 in 10.0 mi WNW 8.1 mph - N/A   Scattered Clouds
9:14 AM 55.4 °F 53.6 °F 94% 29.48 in 10.0 mi West 11.5 mph - N/A   Mostly Cloudy
9:15 AM 55.4 °F 53.6 °F 94% 29.48 in 10.0 mi West 10.4 mph - N/A   Mostly Cloudy
9:16 AM 55.4 °F 53.6 °F 94% 29.48 in 10.0 mi West 8.1 mph - N/A   Mostly Cloudy
9:19 AM 55.4 °F 53.6 °F 94% 29.47 in 10.0 mi WNW 8.1 mph - N/A   Mostly Cloudy
9:24 AM 55.4 °F 53.6 °F 94% 29.47 in 10.0 mi WNW 4.6 mph - N/A   Overcast
9:29 AM 55.4 °F 53.6 °F 94% 29.47 in 10.0 mi West 5.8 mph - N/A   Overcast
9:30 AM 55.4 °F 53.6 °F 94% 29.48 in 10.0 mi West 4.6 mph - N/A   Overcast
9:31 AM 55.4 °F 53.6 °F 94% 29.48 in 10.0 mi West 4.6 mph - N/A   Overcast
9:34 AM 55.4 °F 53.6 °F 94% 29.48 in 10.0 mi West 4.6 mph - N/A   Overcast
9:39 AM 55.4 °F 53.6 °F 94% 29.47 in 10.0 mi WNW 5.8 mph - N/A   Overcast
9:41 AM 55.4 °F 53.6 °F 94% 29.47 in 10.0 mi WNW 5.8 mph - N/A   Overcast
9:43 AM 55.4 °F 53.6 °F 94% 29.47 in 10.0 mi WNW 4.6 mph - N/A   Overcast
9:55 AM 55.6 °F 52.3 °F 89% 29.46 in 10.0 mi WNW 9.2 mph - 0.00 in   Overcast
10:55 AM 57.7 °F 50.7 °F 77% 29.47 in 10.0 mi WNW 11.5 mph - N/A   Mostly Cloudy
11:55 AM 61.7 °F 48.0 °F 61% 29.47 in 10.0 mi WNW 12.7 mph 20.7 mph 0.01 in   Mostly Cloudy
12:55 PM 61.2 °F 46.2 °F 58% 29.49 in 10.0 mi WNW 19.6 mph - N/A   Overcast
1:55 PM 63.9 °F 44.6 °F 50% 29.49 in 10.0 mi WNW 17.3 mph 26.5 mph N/A   Scattered Clouds
2:55 PM 61.3 °F 43.7 °F 52% 29.51 in 10.0 mi West 18.4 mph 24.2 mph N/A   Mostly Cloudy
3:55 PM 61.9 °F 41.5 °F 47% 29.54 in 10.0 mi WNW 18.4 mph - N/A   Scattered Clouds
4:55 PM 58.1 °F 38.7 °F 48% 29.58 in 10.0 mi West 16.1 mph 27.6 mph N/A   Overcast
5:55 PM 57.2 °F 37.4 °F 48% 29.60 in 10.0 mi West 20.7 mph 28.8 mph N/A   Mostly Cloudy
6:55 PM 56.1 °F 39.6 °F 54% 29.62 in 10.0 mi West 16.1 mph - N/A   Overcast
7:55 PM 52.3 °F 37.6 °F 57% 29.66 in 10.0 mi WNW 17.3 mph - N/A   Mostly Cloudy
8:55 PM 50.5 °F 38.8 °F 64% 29.69 in 10.0 mi West 9.2 mph - N/A   Overcast
9:55 PM 49.6 °F 38.8 °F 66% 29.72 in 10.0 mi West 10.4 mph - N/A   Clear
10:55 PM 48.9 °F 38.7 °F 68% 29.72 in 10.0 mi West 10.4 mph - N/A   Scattered Clouds
11:55 PM 48.7 °F 38.3 °F 67% 29.74 in 10.0 mi West 11.5 mph - N/A   Mostly Cloudy